This is the latest recevied weather packets stored in our database for station/object YO2LDK-13. If no packets are shown the sender has not sent any weather packets the latest 10 day(s).
| Time | Temp. | Humidity | Pressure | Rain* | Wind** | Luminosity | Snow |
|---|---|---|---|---|---|---|---|
| 1777357220 | 14.44° C | 53% | 1008.8 hPa | 0 mm | - | 134 W/m² | - |
| 1777356920 | 13.89° C | 56% | 1009.1 hPa | 0 mm | - | 87 W/m² | - |
| 1777356620 | 12.78° C | 57% | 1009.1 hPa | 0 mm | - | 72 W/m² | - |
| 1777356319 | 12.22° C | 60% | 1009.1 hPa | 0 mm | - | 63 W/m² | - |
| 1777356020 | 11.67° C | 61% | 1009.1 hPa | 0 mm | - | 54 W/m² | - |
| 1777355720 | 11.67° C | 59% | 1009.1 hPa | 0 mm | - | 46 W/m² | - |
| 1777355419 | 11.11° C | 62% | 1009.1 hPa | 0 mm | - | 43 W/m² | - |
| 1777355119 | 10.56° C | 61% | 1009.1 hPa | 0 mm | - | 41 W/m² | - |
| 1777354820 | 10.56° C | 64% | 1009.1 hPa | 0 mm | - | 41 W/m² | - |
| 1777354519 | 10.56° C | 62% | 1008.8 hPa | 0 mm | - | 39 W/m² | - |
| 1777354219 | 10° C | 62% | 1008.8 hPa | 0 mm | - | 36 W/m² | - |
| 1777353919 | 10.56° C | 62% | 1008.8 hPa | 0 mm | - | 34 W/m² | - |
| 1777353619 | 9.44° C | 60% | 1008.8 hPa | 0 mm | - | 34 W/m² | - |
| 1777353319 | 8.33° C | 64% | 1008.8 hPa | 0 mm | - | 109 W/m² | - |
| 1777353025 | 7.78° C | 69% | 1008.8 hPa | 0 mm | - | 104 W/m² | - |
| 1777352719 | 7.78° C | 71% | 1008.8 hPa | 0 mm | - | 94 W/m² | - |
| 1777352419 | 7.22° C | 71% | 1008.8 hPa | 0 mm | - | 44 W/m² | - |
| 1777352119 | 6.67° C | 70% | 1009.1 hPa | 0 mm | - | 66 W/m² | - |
| 1777351219 | 5.56° C | 73% | 1008.8 hPa | 0 mm | - | 23 W/m² | - |
| 1777350920 | 5° C | 74% | 1008.8 hPa | 0 mm | - | 21 W/m² | - |
| 1777350620 | 5° C | 76% | 1008.5 hPa | 0 mm | - | 20 W/m² | - |
| 1777350320 | 4.44° C | 77% | 1008.5 hPa | 0 mm | - | 18 W/m² | - |
| 1777350019 | 4.44° C | 77% | 1008.5 hPa | 0 mm | - | 16 W/m² | - |
| 1777349720 | 4.44° C | 77% | 1008.5 hPa | 0 mm | - | 15 W/m² | - |
| 1777349420 | 4.44° C | 78% | 1008.5 hPa | 0 mm | - | 12 W/m² | - |
* Rain latest hour (hover to see other rain measurements)
** Current wind speed in m/s (hover to see current wind gust speed)